Location: Home
(42.5358°N, 72.7383°W)
Time: 22:10:15
(UTC-05:00)

Vanguard 2 Rocket - Pass Details

Date: 04 December 2021
Orbit: 554 x 3325 km, 32.9° (Epoch: 21 January)

Event Time Altitude Azimuth Distance (km) Brightness Sun altitude
Rises 21:11:32 0° 266° (W) 4,128 10.8 -52.9°
Reaches altitude 10° 21:14:01 10° 259° (W) 3,449 10.2 -53.4°
Enters shadow 21:15:52 19° 251° (WSW) 3,027 9.7 -53.7°
Maximum altitude 21:22:37 44° 191° (S) 2,561 - -54.8°
Drops below altitude 10° 21:36:56 10° 127° (SE) 5,629 - -57.2°
Sets 21:42:21 0° 122° (ESE) 6,957 - -58.1°
